Location: Champignolles
(47.0543°N, 4.5663°E)
Time: 13:31:07
(UTC+00:00)

NOSS 3-2 (A) - Pass Details

Date: 30 November 2020
Orbit: 789 x 1419 km, 63.4° (Epoch: 22 January)

Event Time Altitude Azimuth Distance (km) Brightness Sun altitude
Rises 19:18:11 0° 232° (SW) 3,364 6.9 -33.9°
Reaches altitude 10° 19:20:33 10° 236° (SW) 2,484 6.2 -34.3°
Enters shadow 19:24:51 48° 267° (W) 1,177 4.1 -35.0°
